Race Coverage Navigation

TS # 12 / Mexican Hat, UT  2019

 


TS STATS
TS Distance 44.71 
Total Distance 794.42 
Miles To Go 2275.86 
TS Climbing 745 
Total Climbing
TS  Elevation
TS  Net Elevation 1165 
Map Filename Open Map 
Directions Filename  
Latitude 37.15 
Longitude -109.86 
Google Map  TimeStation Map 


TS Arrival Data
Arr Ord  #/Name Arrival DT TS Dst Avg This TS Avg Overall Ascending
 1 563 - Team Nico Ultracycling - In Fight against Cancer   06/14/2019 23:11 44.71  11.51  10.09 
 2 R116 - Philippe May  06/14/2019 20:54 44.71  12.77  10.25 
 3 607 - Sabine Bird (Team Bean)  06/14/2019 20:19 44.71  11.18  10.41 
 4 R119 - Team BlueLine (Martha Hall)  06/14/2019 19:12 44.71  9.62  10.46 
 5 R121 - Ironmae (Rosecler Costa)  06/14/2019 18:25 44.71  17.65  10.57 
 6 605 - Christian Echavarria  06/14/2019 19:29 44.71  13.09  10.58 
 7 R110 - James Golding  06/14/2019 18:27 44.71  20.8  10.59 
 8 R117 - ROGIE (Roger Foote)  06/14/2019 18:15 44.71  14.12  10.61 
 9 R115 - Kym Louie  06/14/2019 18:04 44.71  15.33  10.62 
 10 R112 - John Hoopingarner  06/14/2019 17:57 44.71  14.42  10.66 
 11 R105 - 2nd Chance Racing (Craig Johnson)  06/14/2019 17:53 44.71  12.65  10.68 
 12 R122 - Kirk Gentle  06/14/2019 16:43 44.71  14.74  10.83 
 13 R114 - Krishna Prakash  06/14/2019 16:35 44.71  15.24  10.86 
 14 527 - TALABARDON (Herve Talabardon)  06/14/2019 17:35 44.71  13.76  10.87 
 15 608 - Elin Starup  06/14/2019 16:49 44.71  9.9  10.91 
 16 424 - Team i RON man Veterans supporting Veterans  06/14/2019 17:02 44.71  17.77  10.96 
 17 610 - Kabir Rachure  06/14/2019 14:55 44.71  7.1  11.26 
 18 399 - Valerio Zamboni  06/14/2019 14:41 44.71  11.87  11.33 
 19 618 - GREGORY ROBINSON  06/14/2019 13:16 44.71  23.53  11.5 
 20 R84 - James Jason Ingels  06/14/2019 12:42 44.71  12.25  11.5 
 21 510 - John C. Tarlton  06/14/2019 12:11 44.71  12.25  11.73 
 22 539 - Kari Rouvinen  06/14/2019 11:57 44.71  21.29  11.77 
 23 411 - Geoff Brunner  06/14/2019 12:04 44.71  17.88  11.77 
 24 R103 - Chris Davies  06/14/2019 11:02 44.71  21.29  11.77 
 25 559 - Team Martin RAAM 2019 (Martin Bergmeister)  06/14/2019 11:41 44.71  6.61  11.81 
 26 R104 - Team everve Christian (Christian Beichel)  06/14/2019 10:43 44.71  10.05  11.82 
 27 611 - Marcelo Soares " MIXIRICA "  06/14/2019 11:14 44.71  21.12  11.87 
 28 367 - Daniela Genovesi  06/14/2019 9:40 44.71  7.13  12.12 
 29 R120 - Team Next Step (Peter Pedersen)  06/14/2019 6:54 44.71  16.06  12.5 
 30 R106 - Damaceleste.com (Valentina Tanzi)  06/14/2019 6:28 44.71  12.14  12.58 
 31 568 - Alexandra Meixner  06/14/2019 6:27 44.71  20.32  12.73 
 32 416 - Leah Goldstein  06/14/2019 6:20 44.71  8.97  12.77 
 33 615 - Philipp Amhof  06/14/2019 5:49 44.71  7.89  12.9 
 34 161 - Seana Hogan  06/14/2019 4:19 44.71  14.74  13.2 
 35 604 - Chieko Ozawa  06/14/2019 3:55 44.71  16.98  13.27 
 36 620 - Team Jefferson (Allan Jefferson)  06/14/2019 3:03 44.71  12.36  13.5 
 37 T210 - Bike Wine Team  06/18/2019 1:54 44.71  11.46  13.52 
 38 622 - Thomas Odom-Team Kyle Pease Foundation  06/14/2019 2:49 44.71  16.77  13.55 
 39 442 - Joe Barr  06/14/2019 2:44 44.71  13.15  13.65 
 40 603 - Alan Bradley  06/14/2019 2:20 44.71  12.71  13.71 
 41 329 - Peter Oyler  06/14/2019 2:14 44.71  7.78  13.78 
 42 623 - Ultra Paka Racing Team (Daniel Polman)  06/14/2019 1:18 44.71  13.41  13.9 
 43 R124 - Andres Rodriguez  06/13/2019 23:50 44.71  15.97  14.06 
 44 R111 - Jennifer Orr  06/13/2019 23:16 44.71  15.97  14.19 
 45 T409 - Serpentine Golden Girls  06/17/2019 22:47 44.71  15.97  14.32 
 46 R209 - Workhorses  06/13/2019 22:10 44.71  20.32  14.42 
 47 R201 - IN OUR PRIME  06/13/2019 21:19 44.71  18.76  14.68 
 48 T203 - JPsDuo  06/17/2019 20:52 44.71  17.65  14.76 
 49 R203 - Mike 'n' Jay Giretto con Amici  06/13/2019 20:49 44.71  19.16  14.8 
 50 529 - Isa Pulver  06/13/2019 21:37 44.71  20.48  14.84 
 51 T205 - Prevent Breast Cancer powered by Endomag  06/17/2019 19:53 44.71  17.53  15.05 
 52 T208 - Team Machine  06/17/2019 19:55 44.71  11.77  15.05 
 53 T200 - AIR RELAX GoPro TEAM BRASIL  06/17/2019 19:41 44.71  22.93  15.08 
 54 349 - Mark Pattinson  06/13/2019 20:54 44.71  18.89  15.18 
 55 612 - Markus K. Brandl  06/13/2019 20:29 44.71  13.21  15.22 
 56 T207 - Team Life Time  06/17/2019 19:13 44.71  12.19  15.25 
 57 288 - Dave Haase  06/13/2019 20:39 44.71  18.76  15.27 
 58 617 - SOLO.kiwi (Craig Harper)  06/13/2019 20:04 44.71  19.16  15.33 
 59 T801 - Mind Over Matter  06/17/2019 18:42 44.71  15.78  15.52 
 60 T417 - Team4RAAM 2019 powered by TGW Living Logistics  06/17/2019 18:37 44.71  12.54  15.53 
 61 609 - Jakob Olsen  06/13/2019 19:29 44.71  21.63  15.54 
 62 R402 - SUWOS  06/13/2019 17:05 44.71  15.87  15.87 
 63 T402 - EA/WFP RAAM Team  06/17/2019 16:24 44.71  17.88  16.15 
 64 T806 - Team SuperMarrow  06/17/2019 16:43 44.71  13.9  16.17 
 65 T413 - TEAM BRASIL - SKIPPER  06/17/2019 16:06 44.71  16.66  16.31 
 66 279 - Marko Baloh  06/13/2019 16:53 44.71  18.76  16.46 
 67 T204 - Lucan CRC  06/17/2019 14:34 44.71  19.73  16.72 
 68 T415 - TEAM FIRE VELO 935  06/17/2019 14:52 44.71  21.29  16.74 
 69 T414 - Brazil Nuts  06/17/2019 14:28 44.71  11.18  16.88 
 70 T405 - High Rollers  06/17/2019 14:05 44.71  22.17  16.96 
 71 T206 - Project Linear Acceleration  06/17/2019 13:41 44.71  18.76  17.05 
 72 R205 - Team OB2  06/13/2019 13:03 44.71  21.81  17.3 
 73 T410 - Soap-Aid  06/17/2019 13:03 44.71  17.53  17.38 
 74 T803 - Team EndoPark  06/17/2019 13:13 44.71  18.76  17.39 
 75 T403 - EKJ Denmark  06/17/2019 12:30 44.71  20.32  17.54 
 76 R200 - EY Legacy Builders 2019  06/13/2019 12:18 44.71  20.64  17.61 
 77 T202 - Integra Medical - BAA Racing  06/17/2019 12:09 44.71  20.96  17.61 
 78 R400 - HTX Velo Femme  06/13/2019 11:56 44.71  20.17  17.71 
 79 T418 - The Opportunists  06/17/2019 11:07 44.71  19.44  18.2 
 80 R401 - San Diego Sports Medicine/Zoca  06/13/2019 10:06 44.71  19.87  18.45 
 81 T400 - Cantastic4  06/17/2019 10:02 44.71  20.8  18.53 
 82 T408 - Radeln-fuer-Kinder (Cycling-for-Kids)  06/17/2019 10:00 44.71  22.17  18.6 
 83 377 - Christoph Strasser  06/13/2019 11:09 44.71  16.77  18.69 
 84 T804 - Team FSHD Skyland Trail  06/17/2019 9:58 44.71  20.8  18.73 
 85 T406 - Operation Walk Midwest  06/17/2019 9:39 44.71  21.12  18.74 
 86 T808 - Antonia's Friends 2019  06/17/2019 9:59 44.71  22.54  18.75 
 87 T416 - Team Rotary Raams Polio  06/17/2019 9:29 44.71  22.36  18.89 
 88 T802 - Scorchers  06/17/2019 9:14 44.71  20.96  19.04 
 89 T412 - Team Aspect  06/17/2019 8:43 44.71  16.16  19.21 
 90 T807 - Team ZOE International  06/17/2019 8:31 44.71  19.58  19.42 
 91 T407 - Julian Becker   06/17/2019 7:35 44.71  19.58  19.71 
 92 T805 - Team Oceanside  06/17/2019 7:25 44.71  22.93  19.94 
 93 T201 - EAT WELL  06/17/2019 6:29 44.71  18.89  20.13 
 94 R403 - Team Viasat-Denver  06/13/2019 6:04 44.71  21.99  20.34 
 95 T404 - Gentlemen of speed  06/17/2019 4:56 44.71  24.39  21.07 
 96 T401 - Data Techniques powered by Networks Centre  06/17/2019 3:57 44.71  23.33  21.61 
 97 R404 - Team Viasat - Carlsbad  06/13/2019 3:33 44.71  24.39  21.74 
 98 T411 - team alpha - tischlerei groemmer  06/17/2019 3:26 44.71  23.95  22.02 
 99 T800 - Backstedt Racing Project 14  06/17/2019 3:03 44.71  26.83  22.34